Погода в Лебяжьем

Россия / Курганская область     55°46′24″N   63°04′59″E
темп.,
°C
ветер,
м/с
пор.,
м/с
влажн.,
%
обл.,
%
осадки,
мм/ч
давл.,
гПа
погр.,
м
18 мая, вт
вт1823:00+17ссв51075100 0.8 1016247
02:00+16зсз61479100 1.4 1016412
05:00+16зсз51482100 4.1 1016498
08:00+19з51071100 0.1 1014402
11:00+24зсз675111 0.1 10131215
14:00+27сз673669 0.0 10133079
17:00+21ссв8105644 0.0 1014783
20:00+18ссв8126716 1.6 1016834
19 мая, ср
ср1923:00+13ссв7127868 1.6 1019585
02:00+13ссв697189 0.0 1021688
05:00+10ссв49800 0.0 1022361
08:00+13св67590 0.0 1023867
11:00+17св67465 0.0 10241448
14:00+19св45405 0.0 10231744
17:00+20ссв4538100 0.0 10231835
20:00+17с36535 0.0 102397
20 мая, чт
чт2023:00+12св3361100 0.0 102429
02:00+11вюв11635 0.0 102410
05:00+10ююв22659 0.0 102610
08:00+15юз225133 0.0 1026309
11:00+20з224018 0.0 10251365
14:00+22з33345 0.0 10241571
17:00+23з33335 0.0 10231550
20:00+20зюз12470 0.0 102211
21 мая, пт
пт2123:00+16юз22520 0.0 102313
02:00+14зюз34512 0.0 102238
05:00+13зюз335717 0.0 102341
08:00+19зюз344614 0.0 1023252
11:00+24юз34325 0.0 10231252
14:00+26юз45285 0.0 10221863
17:00+26юз55295 0.0 10212097
20:00+22юз33461 0.0 102127
22 мая, сб
сб2223:00+18ююз34460 0.0 102242
02:00+16ююз46480 0.0 102276
05:00+15юз47540 0.0 102292
08:00+20зюз47463 0.0 1022274
11:00+25зюз45375 0.0 10221115
14:00+28зюз6830100 0.0 10213147
17:00+27з573553 0.0 10201786
20:00+21зюз3755100 0.0 1021117